Location: Habighorst
(52.7089°N, 10.2278°E)
Time: 23:47:14
(UTC+00:00)

Cosmos 2084 - Pass Details

Date: 13 January 2026
Orbit: 536 x 564 km, 62.8° (Epoch: 18 February)

Event Time Altitude Azimuth Distance (km) Brightness Sun altitude
Exits shadow 04:50:49 20° 192° (SSW) 1,338 5.2 -22.4°
Maximum altitude 04:53:23 44° 129° (SE) 777 4.4 -22.0°
Drops below altitude 10° 04:57:20 10° 57° (ENE) 1,845 6.6 -21.5°
Sets 04:59:37 0° 51° (NE) 2,738 7.5 -21.1°
